[[{"header":{"parameterUnit":"m.s-1","parameterCategory":1,"la1":30.2991,"la2":30.254,"lo1":-89.0895,"lo2":-89.0444,"dy":0.0017,"dx":0.0017,"nx":28,"ny":28,"refTime":"2024-09-04T09:00:00:Z","depth":0,"parameterNumber":2,"parameterNumberName":"U-component_of_WINDS"},"data":[0,0,0,0,0,0,0,0,0,0,0,0,0,0,0,0,0,0,0,0,0,0,0,0,0,0,0,0,0,0,0,0,0,0,0,0,0,0,0,0,0,0,0,0,0,0,0,0,0,0,0,0,0,0,0,0,0,0,-6.3368,-6.3368,0,-6.3361,-6.3361,-6.3361,-6.3181,-6.3176,-6.3171,-6.3167,-6.3163,-6.3167,-6.3171,0,0,0,0,0,0,0,0,0,0,0,0,0,-6.3225,-6.3229,-6.3368,-6.3368,-6.3368,-6.3361,-6.3361,-6.3361,-6.3181,-6.3176,-6.317,-6.3165,-6.3161,-6.3166,-6.3171,0,0,0,0,0,0,0,0,0,0,0,0,0,-6.326,-6.323,-6.3368,-6.3277,-6.3269,-6.3361,-6.3361,-6.3361,-6.3183,-6.3175,-6.3168,-6.3162,-6.316,-6.3166,-6.3172,-6.3352,0,0,-6.3192,-6.3194,0,0,0,0,0,0,0,0,-6.3258,-6.3265,-6.329,-6.3283,-6.3274,-6.3264,-6.3309,-6.3358,-6.3184,-6.3215,-6.3167,-6.3159,-6.3202,-6.3205,-6.3219,-6.3351,-6.3351,-6.3192,-6.3196,-6.3199,-6.3201,0,0,0,0,0,0,0,-6.3256,-6.3265,-6.3365,-6.3291,-6.3281,-6.3237,-6.3234,-6.3318,-6.3248,-6.3212,-6.3199,-6.3201,-6.3197,-6.3213,-6.3218,-6.3351,-6.3192,-6.3198,-6.3202,-6.3204,-6.3628,-6.3636,0,0,0,0,0,0,-6.3266,-6.3264,-6.3365,-6.3365,-6.3249,-6.3245,-6.3242,-6.3275,-6.3247,-6.3236,-6.3207,-6.3192,-6.3206,-6.321,-6.3217,-6.3423,-6.3199,-6.3205,-6.3208,-6.3621,-6.363,-6.3638,0,0,0,0,0,0,-6.3264,-6.3277,-6.3365,-6.3311,-6.3319,-6.3255,-6.3293,-6.3278,-6.3295,-6.3243,-6.323,-6.3236,-6.3201,-6.3208,-6.3319,-6.3421,-6.3208,-6.3213,-6.3612,-6.3624,-6.3634,-6.3839,0,0,0,0,0,0,-6.326,-6.3277,-6.3344,-6.3314,-6.3322,-6.3468,-6.33,-6.3283,-6.3306,-6.3287,-6.3267,-6.3257,-6.3196,-6.331,-6.3325,-6.3426,-6.3218,-6.3603,-6.3617,-6.3631,-6.3823,-6.3856,-6.3884,0,0,0,0,0,-6.3256,-6.3404,-6.3349,-6.3362,-6.3405,-6.3474,-6.3479,-6.3405,-6.3315,-6.3382,-6.3348,-6.3258,-6.3408,-6.3323,-6.3338,-6.3442,-6.3596,-6.3613,-6.363,-6.381,-6.385,-6.3884,0,0,0,0,0,0,-6.3449,-6.3398,-6.3337,-6.3479,-6.3482,-6.3444,-6.3526,-6.345,-6.348,-6.3461,-6.3368,-6.3365,-6.3491,-6.3477,-6.3384,-6.3614,-6.3486,-6.3506,-6.3617,-6.3655,-6.3685,-6.3685,-6.3224,0,0,0,0,0,-6.3508,-6.3568,-6.352,-6.365,-6.3655,-6.3591,-6.3618,-6.356,-6.356,-6.3561,-6.3535,-6.354,-6.3587,-6.3621,-6.3662,-6.3821,-6.3813,-6.39,-6.393,-6.3956,-6.3974,-6.4056,-6.4093,-6.3693,-6.3693,-6.3693,0,0,-6.3631,-6.361,-6.3654,-6.3688,-6.3684,-6.3748,-6.3593,-6.3668,-6.3714,-6.3573,-6.3675,-6.3657,-6.3655,-6.3791,-6.3849,-6.3784,-6.4083,-6.3977,-6.3998,-6.4002,-6.4077,-6.4115,-6.4149,-6.3705,-6.3702,-6.3701,0,0,-6.3887,-6.3878,-6.3984,-6.3983,-6.3978,-6.3934,-6.396,-6.3933,-6.3915,-6.4016,-6.391,-6.3965,-6.4049,-6.4051,-6.4064,-6.432,-6.4237,-6.4336,-6.4496,-6.4577,-6.4608,-6.4635,-6.4725,-6.4759,-6.4355,-6.4356,-6.4356,0,-6.4041,-6.4132,-6.4049,-6.413,-6.4147,-6.4021,-6.4127,-6.4131,-6.414,-6.4156,-6.4082,-6.4184,-6.4174,-6.4308,-6.437,-6.4385,-6.4411,-6.4338,-6.461,-6.4637,-6.4661,-6.4746,-6.478,-6.4368,-6.4366,-6.4365,-6.4364,0,-6.432,-6.4385,-6.4471,-6.4482,-6.4509,-6.4604,-6.4534,-6.4573,-6.4513,-6.4477,-6.4581,-6.4565,-6.4599,-6.4627,-6.457,-6.4752,-6.4712,-6.4626,-6.4495,-6.4713,-6.479,-6.4822,-6.4385,-6.4381,-6.4377,-6.4374,0,0,-6.4698,-6.466,-6.4693,-6.4695,-6.468,-6.4729,-6.4817,-6.4849,-6.4883,-6.4894,-6.4965,-6.5039,-6.4959,-6.4973,-6.4915,-6.4986,-6.5188,-6.4891,-6.4889,-6.4945,-6.5386,-6.545,-6.5489,-6.5134,-6.5139,-6.5144,-6.5386,0,-6.4943,-6.509,-6.5017,-6.5173,-6.5231,-6.5111,-6.5187,-6.5187,-6.5156,-6.5201,-6.5166,-6.5219,-6.5111,-6.5118,-6.5183,-6.515,-6.5275,-6.5132,-6.5198,-6.5201,-6.52,-6.553,-6.5597,-6.5826,-6.5416,-6.5421,-6.5425,0,-6.525,-6.5272,-6.5433,-6.5405,-6.5426,-6.5496,-6.5519,-6.5565,-6.5561,-6.5533,-6.5549,-6.5474,-6.5558,-6.543,-6.5544,-6.5448,-6.5471,-6.5459,-6.5466,-6.5468,-6.5325,-6.5539,-6.5897,-6.5931,-6.5472,-6.5468,-6.5465,0,-6.5507,-6.5577,-6.5681,-6.5688,-6.5658,-6.571,-6.57,-6.569,-6.5713,-6.5734,-6.5749,-6.578,-6.5797,-6.5823,-6.5759,-6.5671,-6.5882,-6.5748,-6.586,-6.5862,-6.5909,-6.5906,-6.6274,-6.5927,-6.5927,-6.5926,-6.5925,0,-6.5788,-6.5891,-6.5796,-6.5861,-6.5972,-6.5888,-6.6,-6.5978,-6.5969,-6.6027,-6.5927,-6.5984,-6.5895,-6.5944,-6.5894,-6.5995,-6.6004,-6.5984,-6.5969,-6.5992,-6.5995,-6.6005,-6.5987,-6.5935,-6.5933,-6.5931,-6.593,0,-6.6094,-6.6035,-6.614,-6.6103,-6.6096,-6.618,-6.6148,-6.6207,-6.6168,-6.6243,-6.6255,-6.6196,-6.6247,-6.6185,-6.6232,-6.6198,-6.6335,-6.6298,-6.6336,-6.6325,-6.644,-6.6429,-6.6826,-6.6873,-6.6498,-6.6501,-6.6505,0,-6.6277,-6.6352,-6.6323,-6.6354,-6.635,-6.6401,-6.6424,-6.6344,-6.6373,-6.6374,-6.6432,-6.6474,-6.6503,-6.6591,-6.6552,-6.6587,-6.6549,-6.6685,-6.6553,-6.6573,-6.6549,-6.6544,-6.6551,-6.6712,-6.6717,-6.672,-6.6723,0,-6.6606,-6.6573,-6.6609,-6.6636,-6.6666,-6.6684,-6.6694,-6.6725,-6.6641,-6.6678,-6.6729,-6.6752,-6.6798,-6.6841,-6.6865,-6.6855,-6.6776,-6.6765,-6.6792,-6.6816,-6.6834,-6.6824,-6.6408,-6.6756,-6.6753,-6.675,-6.6749,-6.6747,-6.6854,-6.6915,-6.6904,-6.6947,-6.6946,-6.6957,-6.7009,-6.6977,-6.7017,-6.7047,-6.6998,-6.7061,-6.7055,-6.7078,-6.7078,-6.7126,-6.7067,-6.7108,-6.7117,-6.7128,-6.7145,-6.6828,-6.713,-6.7129,-6.7128,-6.7127,-6.7127,0,-6.7177,-6.7163,-6.7205,-6.722,-6.7255,-6.7176,-6.7183,-6.7217,-6.7273,-6.7273,-6.7304,-6.7361,-6.7402,-6.7367,-6.7401,-6.7446,-6.741,-6.7458,-6.7453,-6.7451,-6.7196,-6.7168,-6.7486,-6.7486,-6.7486,-6.7486,-6.7486,-6.7485,-6.7349,-6.7447,-6.7413,-6.7509,-6.7494,-6.7554,-6.7564,-6.7574,-6.7573,-6.7641,-6.7674,-6.765,-6.7636,-6.7668,-6.7702,-6.769,-6.7707,-6.7767,-6.7743,-6.7505,-6.747,-6.7436,-6.7409,-6.7772,-6.7772,-6.7993,-6.7995,-6.7997]},{"header":{"parameterUnit":"m.s-1","parameterCategory":1,"la1":30.2991,"la2":30.254,"lo1":-89.0895,"lo2":-89.0444,"dy":0.0017,"dx":0.0017,"nx":28,"ny":28,"refTime":"2024-09-04T09:00:00:Z","depth":0,"parameterNumber":3,"parameterNumberName":"V-component_of_WINDS"},"data":[0,0,0,0,0,0,0,0,0,0,0,0,0,0,0,0,0,0,0,0,0,0,0,0,0,0,0,0,0,0,0,0,0,0,0,0,0,0,0,0,0,0,0,0,0,0,0,0,0,0,0,0,0,0,0,0,0,0,-2.0749,-2.0749,0,-2.0759,-2.076,-2.076,-2.0759,-2.0758,-2.0758,-2.0758,-2.0768,-2.0768,-2.0769,0,0,0,0,0,0,0,0,0,0,0,0,0,-2.0725,-2.0725,-2.0749,-2.0749,-2.0749,-2.0759,-2.076,-2.076,-2.0759,-2.0758,-2.0758,-2.0758,-2.0768,-2.0768,-2.0769,0,0,0,0,0,0,0,0,0,0,0,0,0,-2.0735,-2.0726,-2.0749,-2.075,-2.075,-2.0759,-2.076,-2.076,-2.0759,-2.0758,-2.0758,-2.0758,-2.0768,-2.0768,-2.0769,-2.0778,0,0,-2.0771,-2.0771,0,0,0,0,0,0,0,0,-2.0735,-2.0736,-2.0749,-2.075,-2.075,-2.0757,-2.0755,-2.0766,-2.0759,-2.0755,-2.0758,-2.0758,-2.0765,-2.0765,-2.0768,-2.0778,-2.0779,-2.0771,-2.0771,-2.0772,-2.0772,0,0,0,0,0,0,0,-2.0734,-2.0736,-2.0753,-2.075,-2.075,-2.0749,-2.075,-2.0757,-2.0761,-2.0756,-2.0756,-2.0757,-2.0765,-2.0767,-2.0768,-2.0779,-2.0771,-2.0771,-2.0772,-2.0772,-2.0794,-2.0794,0,0,0,0,0,0,-2.0733,-2.0735,-2.0753,-2.0753,-2.0742,-2.0749,-2.0751,-2.0755,-2.0761,-2.0762,-2.0757,-2.0757,-2.0766,-2.0767,-2.0769,-2.0778,-2.0772,-2.0772,-2.0772,-2.0794,-2.0794,-2.0795,0,0,0,0,0,0,-2.0733,-2.0735,-2.0752,-2.0744,-2.0746,-2.075,-2.0755,-2.0756,-2.0758,-2.0762,-2.0763,-2.0759,-2.0766,-2.0768,-2.0775,-2.0778,-2.0772,-2.0773,-2.0794,-2.0794,-2.0794,-2.0797,0,0,0,0,0,0,-2.0732,-2.0735,-2.0739,-2.0744,-2.0747,-2.0759,-2.0755,-2.0756,-2.076,-2.0759,-2.0764,-2.0765,-2.0766,-2.0774,-2.0776,-2.0779,-2.0773,-2.0794,-2.0794,-2.0794,-2.0797,-2.0798,-2.0798,0,0,0,0,0,-2.0731,-2.074,-2.0739,-2.0741,-2.0752,-2.0759,-2.0761,-2.0762,-2.076,-2.0763,-2.0765,-2.0765,-2.0778,-2.0775,-2.0777,-2.078,-2.0793,-2.0794,-2.0794,-2.0797,-2.0798,-2.0798,0,0,0,0,0,0,-2.0735,-2.074,-2.074,-2.075,-2.0754,-2.0759,-2.0764,-2.0763,-2.0768,-2.0768,-2.0769,-2.077,-2.0777,-2.0779,-2.0776,-2.0788,-2.0785,-2.0786,-2.0786,-2.0787,-2.0788,-2.0787,-2.0774,0,0,0,0,0,-2.0737,-2.0743,-2.0747,-2.0756,-2.0758,-2.076,-2.0764,-2.0764,-2.0768,-2.077,-2.0773,-2.0777,-2.0781,-2.0784,-2.0789,-2.0797,-2.0797,-2.08,-2.0801,-2.0801,-2.0802,-2.0805,-2.0806,-2.0796,-2.0796,-2.0796,0,0,-2.0741,-2.0744,-2.0748,-2.0756,-2.076,-2.0765,-2.0762,-2.0768,-2.0772,-2.0771,-2.0778,-2.078,-2.0784,-2.0791,-2.0794,-2.0793,-2.0805,-2.0802,-2.0803,-2.0803,-2.0805,-2.0806,-2.0807,-2.0796,-2.0796,-2.0796,0,0,-2.0751,-2.0755,-2.0761,-2.0764,-2.0769,-2.077,-2.0772,-2.0776,-2.0778,-2.0785,-2.0784,-2.0787,-2.0796,-2.0798,-2.0801,-2.0809,-2.0808,-2.081,-2.0814,-2.0817,-2.0817,-2.0818,-2.082,-2.0821,-2.0811,-2.0811,-2.0811,0,-2.0755,-2.0763,-2.0765,-2.0771,-2.0773,-2.0773,-2.0779,-2.0781,-2.0787,-2.0789,-2.0787,-2.0796,-2.0799,-2.0806,-2.0808,-2.081,-2.0811,-2.081,-2.0817,-2.0818,-2.0819,-2.082,-2.0821,-2.0811,-2.0811,-2.0811,-2.0811,0,-2.0768,-2.0773,-2.0778,-2.0783,-2.0787,-2.0793,-2.0794,-2.0797,-2.0797,-2.0798,-2.0804,-2.0807,-2.0811,-2.0813,-2.0813,-2.082,-2.0818,-2.0817,-2.0814,-2.082,-2.0821,-2.0822,-2.0811,-2.0811,-2.0811,-2.0811,0,0,-2.0781,-2.0786,-2.0787,-2.0789,-2.0793,-2.0797,-2.0802,-2.0806,-2.0808,-2.0812,-2.0815,-2.0821,-2.082,-2.0822,-2.0822,-2.0825,-2.083,-2.0823,-2.0823,-2.0823,-2.0835,-2.0836,-2.0837,-2.0829,-2.0829,-2.0829,-2.0835,0,-2.079,-2.08,-2.08,-2.0808,-2.0812,-2.0811,-2.0815,-2.0817,-2.0818,-2.0821,-2.0822,-2.0826,-2.0824,-2.0825,-2.0828,-2.0829,-2.0832,-2.0828,-2.0831,-2.0832,-2.083,-2.0838,-2.0839,-2.0844,-2.0835,-2.0836,-2.0836,0,-2.0803,-2.0806,-2.0815,-2.0816,-2.0818,-2.0822,-2.0825,-2.0828,-2.0831,-2.0831,-2.0833,-2.0832,-2.0836,-2.0833,-2.0838,-2.0835,-2.0836,-2.0837,-2.0837,-2.0837,-2.0834,-2.0837,-2.0846,-2.0846,-2.0837,-2.0837,-2.0837,0,-2.081,-2.0817,-2.0822,-2.0824,-2.0826,-2.0829,-2.083,-2.0832,-2.0834,-2.0836,-2.0837,-2.084,-2.0841,-2.0843,-2.0843,-2.0841,-2.0847,-2.0844,-2.0847,-2.0847,-2.0848,-2.0848,-2.0856,-2.085,-2.085,-2.085,-2.085,0,-2.082,-2.0825,-2.0825,-2.0828,-2.0833,-2.0833,-2.0838,-2.0839,-2.084,-2.0843,-2.0842,-2.0844,-2.0844,-2.0846,-2.0846,-2.0849,-2.085,-2.0849,-2.0849,-2.0849,-2.0849,-2.085,-2.0849,-2.085,-2.085,-2.085,-2.085,0,-2.0829,-2.083,-2.0835,-2.0837,-2.0837,-2.084,-2.0842,-2.0844,-2.0844,-2.0848,-2.0848,-2.0849,-2.0851,-2.0851,-2.0854,-2.0853,-2.0857,-2.0857,-2.0856,-2.0856,-2.0858,-2.0858,-2.0867,-2.0867,-2.0861,-2.0861,-2.0861,0,-2.0835,-2.0839,-2.084,-2.0842,-2.0843,-2.0846,-2.0848,-2.0847,-2.0849,-2.0851,-2.0853,-2.0855,-2.0856,-2.086,-2.086,-2.0862,-2.0861,-2.0864,-2.0861,-2.0861,-2.086,-2.086,-2.086,-2.0865,-2.0865,-2.0865,-2.0865,0,-2.0845,-2.0845,-2.0848,-2.085,-2.0852,-2.0853,-2.0855,-2.0856,-2.0856,-2.0857,-2.086,-2.0861,-2.0863,-2.0865,-2.0866,-2.0867,-2.0865,-2.0866,-2.0866,-2.0866,-2.0865,-2.0865,-2.0857,-2.0865,-2.0865,-2.0865,-2.0865,-2.0865,-2.0853,-2.0855,-2.0856,-2.0858,-2.0859,-2.086,-2.0862,-2.0863,-2.0865,-2.0866,-2.0866,-2.0868,-2.0868,-2.087,-2.0871,-2.0872,-2.0871,-2.0872,-2.0872,-2.0872,-2.0872,-2.0865,-2.0872,-2.0872,-2.0872,-2.0872,-2.0872,0,-2.0862,-2.0862,-2.0864,-2.0866,-2.0868,-2.0866,-2.0867,-2.0868,-2.087,-2.0871,-2.0873,-2.0874,-2.0876,-2.0876,-2.0877,-2.0878,-2.0877,-2.0878,-2.0877,-2.0877,-2.0873,-2.0872,-2.0878,-2.0878,-2.0878,-2.0878,-2.0878,-2.0878,-2.0867,-2.087,-2.087,-2.0873,-2.0874,-2.0876,-2.0876,-2.0877,-2.0877,-2.0879,-2.0881,-2.088,-2.088,-2.0881,-2.0882,-2.0882,-2.0882,-2.0883,-2.0882,-2.0878,-2.0878,-2.0877,-2.0876,-2.0883,-2.0883,-2.0887,-2.0887,-2.0887]}]]